EUTELSAT 115 WEST B

Last updated on Sat Jul 05 2025 00:02:46 GMT+0000 (Coordinated Universal Time)

1 40425U 15010B 25184.90420280 -.00000013 00000+0 00000+0 0 9990 2 40425 0.0023 188.7490 0000242 299.8410 4.1873 1.00273110 37907
UTC large
Height (km)
Speed (km/s)
/
Latitude / Longitude
Inclination (degrees)
Orbital Period (minutes)
Azimuth
Elevation
Range (km)
Doppler Factor

Next 0 passes for location: London (51.5072 / 0.1276)

Sorry there are no passes over London.